Regional Weather Roundup
Issued by NWS Newport/Morehead, NC

Current Version | Previous Version | Graphics & Text | Print | Product List | Glossary Off
Versions: 1 2 3 4 5 6 7 8 9 10 11 12 13 14 15 16 17 18 19 20 21 22 23 24 25 26 27 28 29 30 31 32 33 34 35 36 37 38 39 40 41 42 43 44 45 46 47 48 49 50

000
ASUS42 KMHX 271810
RWRMHX
WEATHER ROUNDUP FOR EASTERN NORTH CAROLINA
NATIONAL WEATHER SERVICE NEWPORT/MOREHEAD CITY NC
100 PM EST THU NOV 27 2014

NOTE: "FAIR" INDICATES FEW OR NO CLOUDS BELOW 12,000 FEET
WITH NO SIGNIFICANT WEATHER AND/OR OBSTRUCTIONS TO VISIBILITY

NCZ015>017-031-032-045>047-102-103-271900-
NORTH COAST

CITY           SKY/WX    TMP DP  RH WIND       PRES   REMARKS
EDENTON        SUNNY     50  42  71 NE3       29.98F
ELIZABETH CITY PTSUNNY   51  41  68 NE5       29.99F
KITTY HAWK     MOCLDY    51  42  72 E3        29.96F
MANTEO         CLOUDY    51  42  70 NE3       29.97F

$$

NCZ045>047-081-094-103-104-271900-
CENTRAL COAST

CITY           SKY/WX    TMP DP  RH WIND       PRES   REMARKS
FRISCO         SUNNY     57  45  64 SE6       29.92F
SWANQUARTER      N/A     57 N/A N/A NE3       29.91S

$$

NCZ095-097-098-100-101-271900-
SOUTHERN COAST

CITY           SKY/WX    TMP DP  RH WIND       PRES   REMARKS
BEAUFORT       SUNNY     55  41  59 W15       29.94F
CEDAR ISLAND     N/A     61 N/A N/A SW12G17   29.94F
JACKSONVILLE   MOSUNNY   55  39  54 W14G22    29.97F
PINEY ISLAND   CLEAR     59  41  51 W17G24    29.92F
WILMINGTON     SUNNY     55  37  50 W17       30.00F


$$

NCZ011>013-027>030-043-044-078>080-089-090>093-098-271900-
COASTAL PLAIN

CITY           SKY/WX    TMP DP  RH WIND       PRES   REMARKS
AHOSKIE        CLOUDY    41  39  92 N7        30.03S
CLINTON        PTSUNNY   51  41  67 NW10G17   30.03R
ELIZABETHTOWN  SUNNY     54  37  52 W15G23    30.02S
GOLDSBORO      PTSUNNY   52  46  82 W16G23    29.99S
GREENVILLE     MOSUNNY   52  43  71 NW3       30.00S
HAVELOCK       SUNNY     56  38  50 W17       29.96F
KENANSVILLE    MOSUNNY   51  39  63 W10G17    30.01R
KINSTON        MOSUNNY   52  41  66 NW7       30.00S
NEW BERN       MOSUNNY   57  41  55 W13G21    29.97F
RICHLANDS      MOSUNNY   54  37  54 W9G17     29.99S
ROCKY MOUNT    LGT RAIN  44  40  85 N15       30.03R
WASHINGTON     MOSUNNY   52  42  70 N8        29.97F
WHITEVILLE     PTSUNNY   54  37  54 W9G16     30.03S

$$

AMZ130-135-150-152-154-156-158-170-250-252-270-ANZ085-086-088-633-658-670-271900-
MARINE OBSERVATIONS

STATION/POSITION TIME  TEMP    WIND        PRES    WAVE   SWELL
                       AIR SEA DIR/SP/G            HT/PER HT/PER
                 (UTC) (F)     (DEG/KT/KT) (MB)    (FT/S) (FT/S)
CHESAPEAKE LIGHT 1700   45     290/  4/  6 1017.2
64 E VA BEACH    1800   50 62  310/  4/  6 1015.1    6/ 9   5/ 9
DUCK             1800   50 54   90/  4/  5 1014.4
2 E DUCK         1800      56                N/A     4/10   2/11
10 NE DUCK       1800      58                N/A     4/ 9   2/11
OREGON INLET     1800   51 55   60/  5/  7 1014.2
13E OREGON INLT  1700      61                N/A     6/ 9   2/11
HATTERAS CG      1800   55 58   90/  7/  8 1013.7
DIAMOND BUOY     1800   60     220/ 10/ 16 1013.3    5/ 9   3/ 9
17 S OCRACOKE    NOT AVBL
CAPE LOOKOUT     1700   54     260/ 20/ 24 1014.3
BEAUFORT LAB     1800   55 57  250/  8/ 16 1013.0
30 SE NEW RIVER  1700   54 66  260/ 19/ 23 1015.1
5 SE WRIGHTSVLE  1700   52 59  270/ 12/ 16 1015.9
225 S CAPE HAT   1746   68 73  270/ 21/ 25 1016.5    8/ 8   2/14
41 SE CHARLESTON 1800   55 73  280/ 23/ 29 1018.0    8/ 7   2/14

$$



USA.gov is the U.S. government's official web portal to all federal, state and local government web resources and services.